Hourly Weather Berat

Today, 13 July, Monday

Time Temperature Precipitation Wind Pressure Humidity
00:00 +24°C° 0 mm 1 mps 744 mmHg 83%
01:00 +23°C° 0 mm 1 mps 744 mmHg 83%
02:00 +23°C° 0 mm 1 mps 743 mmHg 83%
03:00 +23°C° 0 mm 1 mps 743 mmHg 83%
04:00 +22°C° 0 mm 1 mps 743 mmHg 83%
05:00 +23°C° 0 mm 2 mps 743 mmHg 78%
06:00 +25°C° 0 mm 2 mps 743 mmHg 72%
07:00 +26°C° 0 mm 2 mps 744 mmHg 67%
08:00 +27°C° 0 mm 2 mps 744 mmHg 61%
09:00 +29°C° 0 mm 2 mps 744 mmHg 55%
10:00 +30°C° 0 mm 2 mps 743 mmHg 50%
11:00 +31°C° 0 mm 3 mps 743 mmHg 45%
12:00 +33°C° 0 mm 3 mps 743 mmHg 41%
13:00 +33°C° 0 mm 3 mps 743 mmHg 37%
14:00 +33°C° 0 mm 3 mps 742 mmHg 38%
15:00 +31°C° 0 mm 3 mps 742 mmHg 40%
16:00 +30°C° 0 mm 3 mps 741 mmHg 42%
17:00 +29°C° 0 mm 3 mps 741 mmHg 48%
18:00 +27°C° 0 mm 2 mps 742 mmHg 53%
19:00 +25°C° 0 mm 2 mps 742 mmHg 59%
20:00 +24°C° 0 mm 2 mps 742 mmHg 59%
21:00 +23°C° 0 mm 2 mps 742 mmHg 59%
22:00 +21°C° 0 mm 2 mps 742 mmHg 59%
23:00 +21°C° 0 mm 2 mps 742 mmHg 58%

Tomorrow, 14 July, Tuesday

Time Temperature Precipitation Wind Pressure Humidity
00:00 +20°C° 0 mm 2 mps 742 mmHg 57%
01:00 +20°C° 0 mm 3 mps 742 mmHg 56%
02:00 +20°C° 0 mm 2 mps 742 mmHg 55%
03:00 +20°C° 0 mm 2 mps 742 mmHg 54%
04:00 +20°C° 0 mm 2 mps 742 mmHg 53%
05:00 +21°C° 0 mm 2 mps 742 mmHg 51%
06:00 +23°C° 0 mm 2 mps 742 mmHg 50%
07:00 +24°C° 0 mm 2 mps 742 mmHg 48%
08:00 +26°C° 0 mm 2 mps 743 mmHg 46%
09:00 +28°C° 0 mm 1 mps 743 mmHg 45%
10:00 +29°C° 0 mm 1 mps 743 mmHg 43%
11:00 +30°C° 0 mm 2 mps 743 mmHg 43%
12:00 +30°C° 0 mm 2 mps 742 mmHg 42%
13:00 +31°C° 0 mm 3 mps 742 mmHg 42%
14:00 +30°C° 0.1 mm 3 mps 742 mmHg 44%
15:00 +29°C° 0.1 mm 3 mps 742 mmHg 47%
16:00 +29°C° 0.1 mm 3 mps 742 mmHg 49%
17:00 +27°C° 0 mm 2 mps 742 mmHg 54%
18:00 +26°C° 0 mm 2 mps 742 mmHg 58%
19:00 +24°C° 0 mm 1 mps 742 mmHg 63%
20:00 +23°C° 0 mm 1 mps 742 mmHg 65%
21:00 +22°C° 0 mm 1 mps 743 mmHg 68%
22:00 +22°C° 0 mm 1 mps 743 mmHg 70%
23:00 +21°C° 0 mm 1 mps 743 mmHg 70%

Day after tomorrow, 15 July, Wednesday

Time Temperature Precipitation Wind Pressure Humidity
00:00 +21°C° 0 mm 1 mps 743 mmHg 71%
01:00 +21°C° 0 mm 1 mps 743 mmHg 71%
02:00 +21°C° 0 mm 1 mps 743 mmHg 73%
03:00 +21°C° 0 mm 1 mps 743 mmHg 74%
04:00 +20°C° 0 mm 1 mps 743 mmHg 75%
05:00 +22°C° 0 mm 1 mps 743 mmHg 69%
06:00 +22°C° 0 mm 0 mps 744 mmHg 64%
07:00 +24°C° 0 mm 0 mps 744 mmHg 58%
08:00 +27°C° 0 mm 1 mps 744 mmHg 53%
09:00 +29°C° 0 mm 1 mps 744 mmHg 47%
10:00 +30°C° 0 mm 2 mps 744 mmHg 42%
11:00 +31°C° 0 mm 3 mps 744 mmHg 39%
12:00 +31°C° 0 mm 3 mps 744 mmHg 37%
13:00 +33°C° 0 mm 4 mps 744 mmHg 34%
14:00 +32°C° 0 mm 4 mps 744 mmHg 35%
15:00 +32°C° 0 mm 4 mps 743 mmHg 36%
16:00 +30°C° 0 mm 3 mps 743 mmHg 38%
17:00 +28°C° 0 mm 3 mps 743 mmHg 43%
18:00 +26°C° 0 mm 2 mps 743 mmHg 48%
19:00 +24°C° 0 mm 1 mps 743 mmHg 53%
20:00 +24°C° 0 mm 1 mps 744 mmHg 54%
21:00 +23°C° 0 mm 1 mps 744 mmHg 55%
22:00 +22°C° 0 mm 1 mps 744 mmHg 57%
23:00 +22°C° 0 mm 1 mps 744 mmHg 57%

16 July, Thursday

Time Temperature Precipitation Wind Pressure Humidity
00:00 +22°C° 0 mm 1 mps 744 mmHg 57%
01:00 +21°C° 0 mm 1 mps 743 mmHg 57%
02:00 +21°C° 0 mm 1 mps 743 mmHg 57%
03:00 +21°C° 0 mm 1 mps 743 mmHg 56%
04:00 +21°C° 0 mm 1 mps 743 mmHg 56%
05:00 +23°C° 0 mm 1 mps 743 mmHg 52%
06:00 +25°C° 0 mm 1 mps 743 mmHg 48%
07:00 +27°C° 0 mm 1 mps 743 mmHg 45%
08:00 +28°C° 0 mm 1 mps 743 mmHg 42%
09:00 +29°C° 0 mm 1 mps 743 mmHg 40%
10:00 +31°C° 0 mm 2 mps 743 mmHg 38%
11:00 +31°C° 0 mm 3 mps 743 mmHg 38%
12:00 +33°C° 0 mm 3 mps 742 mmHg 38%
13:00 +33°C° 0 mm 4 mps 742 mmHg 38%
14:00 +33°C° 0 mm 4 mps 742 mmHg 40%
15:00 +32°C° 0 mm 4 mps 741 mmHg 42%
16:00 +32°C° 0 mm 4 mps 741 mmHg 44%
17:00 +29°C° 0 mm 3 mps 741 mmHg 50%
18:00 +27°C° 0 mm 2 mps 741 mmHg 55%
19:00 +25°C° 0 mm 1 mps 741 mmHg 60%
20:00 +24°C° 0 mm 1 mps 741 mmHg 61%
21:00 +24°C° 0 mm 1 mps 741 mmHg 61%
22:00 +23°C° 0 mm 1 mps 741 mmHg 61%
23:00 +23°C° 0 mm 1 mps 741 mmHg 60%

17 July, Friday

Time Temperature Precipitation Wind Pressure Humidity
00:00 +23°C° 0 mm 1 mps 741 mmHg 60%
01:00 +22°C° 0 mm 1 mps 740 mmHg 59%
02:00 +22°C° 0 mm 1 mps 740 mmHg 59%
03:00 +22°C° 0 mm 1 mps 740 mmHg 58%
04:00 +22°C° 0 mm 1 mps 740 mmHg 58%
05:00 +24°C° 0 mm 1 mps 740 mmHg 55%
06:00 +26°C° 0 mm 1 mps 740 mmHg 51%
07:00 +27°C° 0 mm 1 mps 740 mmHg 48%
08:00 +29°C° 0 mm 1 mps 740 mmHg 45%
09:00 +31°C° 0 mm 1 mps 740 mmHg 41%
10:00 +32°C° 0 mm 1 mps 740 mmHg 38%
11:00 +32°C° 0.1 mm 2 mps 740 mmHg 39%
12:00 +33°C° 0.1 mm 3 mps 740 mmHg 40%
13:00 +33°C° 0.1 mm 4 mps 739 mmHg 41%
14:00 +31°C° 0.1 mm 3 mps 739 mmHg 43%
15:00 +31°C° 0.1 mm 3 mps 739 mmHg 46%
16:00 +30°C° 0.1 mm 2 mps 739 mmHg 48%
17:00 +28°C° 0 mm 2 mps 739 mmHg 53%
18:00 +27°C° 0 mm 1 mps 739 mmHg 59%
19:00 +25°C° 0 mm 1 mps 739 mmHg 64%
20:00 +25°C° 0 mm 1 mps 739 mmHg 65%
21:00 +24°C° 0 mm 1 mps 740 mmHg 67%
22:00 +23°C° 0 mm 1 mps 740 mmHg 68%
23:00 +23°C° 0 mm 1 mps 740 mmHg 69%

18 July, Saturday

Time Temperature Precipitation Wind Pressure Humidity
00:00 +23°C° 0 mm 1 mps 740 mmHg 69%
01:00 +23°C° 0 mm 1 mps 740 mmHg 70%
02:00 +22°C° 0 mm 1 mps 740 mmHg 71%
03:00 +22°C° 0 mm 1 mps 740 mmHg 72%
04:00 +22°C° 0 mm 1 mps 739 mmHg 74%
05:00 +24°C° 0 mm 1 mps 740 mmHg 69%
06:00 +25°C° 0 mm 1 mps 740 mmHg 64%
07:00 +27°C° 0 mm 1 mps 740 mmHg 59%
08:00 +29°C° 0 mm 2 mps 740 mmHg 53%
09:00 +30°C° 0 mm 2 mps 740 mmHg 47%
10:00 +32°C° 0 mm 2 mps 739 mmHg 41%
11:00 +33°C° 0 mm 3 mps 739 mmHg 43%
12:00 +33°C° 0 mm 3 mps 739 mmHg 44%
13:00 +31°C° 0 mm 3 mps 738 mmHg 46%
14:00 +30°C° 0.2 mm 3 mps 738 mmHg 50%
15:00 +30°C° 0.2 mm 3 mps 738 mmHg 54%
16:00 +29°C° 0.2 mm 3 mps 738 mmHg 57%
17:00 +28°C° 0.3 mm 2 mps 738 mmHg 63%
18:00 +26°C° 0.3 mm 1 mps 738 mmHg 69%
19:00 +25°C° 0.3 mm 1 mps 738 mmHg 75%
20:00 +24°C° 0.4 mm 1 mps 738 mmHg 78%
21:00 +21°C° 0.4 mm 0 mps 739 mmHg 81%
22:00 +20°C° 0.4 mm 0 mps 739 mmHg 85%
23:00 +22°C° 0.5 mm 1 mps 739 mmHg 85%
Show more